Regional Weather Roundup
Issued by NWS

Home | Current Version | Previous Version | Graphics & Text | Print | Product List | Glossary On
Versions: 1 2 3 4 5 6 7 8 9 10 11 12 13 14 15 16 17 18 19 20 21 22 23 24 25 26 27 28 29 30 31 32 33 34 35 36 37 38 39 40 41 42 43 44 45 46 47 48 49 50
000
ASUS45 KABQ 200401
RWRNM
NEW MEXICO REGIONAL WEATHER ROUNDUP
NATIONAL WEATHER SERVICE ALBUQUERQUE NM
1000 PM MDT SAT AUG 19 2017

NOTE: "FAIR" MEANS FEW OR NO CLOUDS BELOW 12,000 FEET AGL WITH NO
       SIGNIFICANT WEATHER OR OBSTRUCTIONS TO VISION.

      THIS PRODUCT IS RELEASED AS TWO VERSIONS.  ONE VERSION NEAR
      THE TOP OF THE HOUR CONTAINING PRELIMINARY DATA FROM ALBUQUERQUE
      AND OTHER STATIONS.  A FINAL VERSION WITH ADDITIONAL DATA IS
      ISSUED ABOUT 10 MINUTES AFTER THE HOUR.

NMZ501-503-504-510>518-200500-
NORTHWEST PLATEAU/NORTHCENTRAL MOUNTAINS

CITY           SKY/WX    TMP DP  RH WIND       PRES   REMARKS
FARMINGTON     FAIR      72  27  18 NE7       30.07R
LOS ALAMOS     FAIR      67  42  39 SW8       30.29S
SANTA FE       FAIR      70  46  42 SE8       30.23R
TAOS           FAIR      64  44  48 N5        30.30R

$$
NMZ402-403-502-505>509-200500-
WESTCENTRAL MOUNTAINS/SOUTHWEST MOUNTAINS

CITY           SKY/WX    TMP DP  RH WIND       PRES   REMARKS
GALLUP         FAIR      71  32  23 SW7       30.17R
GRANTS         FAIR      75  42  30 E23G33    30.21R
SILVER CITY    FAIR      71  50  46 CALM      30.17R

$$
NMZ407-409-411-412-200500-
SOUTHERN DESERTS

CITY           SKY/WX    TMP DP  RH WIND       PRES   REMARKS
DEMING         FAIR      76  55  48 S7        30.11R
LAS CRUCES     FAIR      71  53  52 SE14      30.16R
ALAMOGORDO     FAIR      72  57  60 SW14      30.14R
T OR C         FAIR      80  54  40 S12       30.10S

$$
NMZ519>523-200500-
CENTRAL VALLEYS/CENTRAL HIGHLANDS

CITY           SKY/WX    TMP DP  RH WIND       PRES   REMARKS
ALBUQUERQUE    CLOUDY    77  45  32 E16       30.15R
DOUBLE EAGLE   CLEAR     73  45  35 SE6       30.20R
CLINES CORNERS FAIR      62  46  55 S5        30.31R
BELEN          NOT AVBL
SOCORRO        NOT AVBL

$$
NMZ524>526-539-540-200500-
SOUTHCENTRAL MOUNTAINS

CITY           SKY/WX    TMP DP  RH WIND       PRES   REMARKS
RUIDOSO        CLOUDY    64  48  55 NW7       30.33S

$$
NMZ527>531-200500-
NORTHEAST HIGHLANDS/NORTHEAST PLAINS

CITY           SKY/WX    TMP DP  RH WIND       PRES   REMARKS
LAS VEGAS      FAIR      59  50  72 S13       30.28R
RATON          FAIR      66  49  54 VRB3      30.22R
CLAYTON        FAIR      66  56  70 SW8       30.11R

$$
NMZ532>537-200500-
EASTCENTRAL PLAINS

CITY           SKY/WX    TMP DP  RH WIND       PRES   REMARKS
TUCUMCARI      FAIR      76  54  46 E5        30.06R
CANNON AFB     CLOUDY    75  64  70 SW5       30.13R
CLOVIS AIRPORT FAIR      73  62  68 SW8       30.12R

$$
NMZ028-029-538-200500-
SOUTHEAST PLAINS

CITY           SKY/WX    TMP DP  RH WIND       PRES   REMARKS
ROSWELL        FAIR      79  59  50 W7        30.07R
ARTESIA        FAIR      81  59  47 S6        30.06R
CARLSBAD       FAIR      73  70  90 S5        30.05R
HOBBS          MOCLDY    77  63  61 CALM      30.08S


$$




USA.gov is the U.S. government's official web portal to all federal, state and local government web resources and services.